Weather History for Topeka, KS

Change the Weather History Date:

Thursday, May 1, 2014

  Actual Average Record
Temperature  
Mean Temperature 50 °F 60 °F  
Max Temperature 59 °F 71 °F 89 °F (1987)
Min Temperature 41 °F 49 °F 26 °F (1963)
Degree Days  
Heating Degree Days 15 6  
Month to date heating degree days 15 6  
Since 1 July heating degree days 5359 4923  
Cooling Degree Days 0 1  
Month to date cooling degree days 0 1  
Year to date cooling degree days 23 29  
Growing Degree Days 2 (Base 50)    
Moisture  
Dew Point 36 °F    
Average Humidity 60    
Maximum Humidity 76    
Minimum Humidity 43    
Precipitation  
Precipitation 0.00 in 0.15 in 1.88 in (1948)
Month to date precipitation 0.00 0.15  
Year to date precipitation 5.84 8.35  
Snow  
Snow 0.00 in 0.00 in T in (1983)
Month to date snowfall 0.0 0.0  
Year to date snowfall 23.1 11.3  
Since 1 July snowfall 27.4 17.8  
Snow Depth 0.00 in    
Sea Level Pressure  
Sea Level Pressure 30.00 in    
Wind  
Wind Speed 10 mph (WNW)    
Max Wind Speed 22 mph    
Max Gust Speed 32 mph    
Visibility 10 miles    
Events      
T = Trace of Precipitation, MM = Missing Value Source: NWS Daily Summary

Daily Weather History Graph

Daily Weather History Graph

Search for Another Location

Airport:

Trip Planner

Search our weather history database for the weather conditions in past years. The results will help you decide how hot, cold, wet, or windy it might be!

Date:

Astronomy

May. 01, 2014 Rise Set
Actual Time 6:24 AM CDT 8:15 PM CDT
Civil Twilight 5:55 AM CDT 8:44 PM CDT
Nautical Twilight 5:20 AM CDT 9:19 PM CDT
Astronomical Twilight 4:42 AM CDT 9:57 PM CDT
Moon 8:13 AM CDT (5/1) 10:49 PM CDT (5/1)
Length of Visible Light 14h 48m
Length of Day
13h 51m
Waxing Crescent, 7% of the Moon is Illuminated
May 1
Waxing Crescent
May 6
First Quarter
May 14
Full
May 21
Last Quarter
May 28
New

Hourly Weather History & Observations

Time (CDT) Temp. Dew Point Humidity Pressure Visibility Wind Dir Wind Speed Gust Speed Precip Events Conditions
12:53 AM 48.0 °F 33.1 °F 56% 30.01 in 10.0 mi West 8.1 mph - N/A   Overcast
1:53 AM 48.0 °F 34.0 °F 58% 30.00 in 10.0 mi West 6.9 mph - N/A   Overcast
2:53 AM 48.0 °F 35.1 °F 61% 29.98 in 10.0 mi West 9.2 mph - N/A   Overcast
3:53 AM 48.0 °F 36.0 °F 63% 29.98 in 10.0 mi West 9.2 mph - N/A   Overcast
4:53 AM 48.0 °F 36.0 °F 63% 29.97 in 10.0 mi West 8.1 mph - N/A   Overcast
5:53 AM 48.0 °F 36.0 °F 63% 29.96 in 10.0 mi WNW 9.2 mph - N/A   Overcast
6:53 AM 48.2 °F 35.6 °F 62% 29.96 in 10.0 mi West 10.4 mph - N/A   Overcast
7:53 AM 48.0 °F 35.1 °F 61% 29.98 in 10.0 mi West 16.1 mph 24.2 mph N/A   Partly Cloudy
8:53 AM 48.9 °F 36.0 °F 61% 29.99 in 10.0 mi West 10.4 mph 18.4 mph N/A   Overcast
9:53 AM 51.1 °F 36.0 °F 56% 29.99 in 10.0 mi WNW 15.0 mph 25.3 mph N/A   Overcast
10:53 AM 50.0 °F 36.0 °F 59% 30.01 in 10.0 mi WNW 12.7 mph 23.0 mph N/A   Overcast
11:53 AM 51.1 °F 36.0 °F 56% 30.02 in 10.0 mi WNW 15.0 mph 24.2 mph N/A   Overcast
12:53 PM 53.1 °F 37.0 °F 55% 30.02 in 10.0 mi NW 12.7 mph - N/A   Overcast
1:53 PM 53.1 °F 37.0 °F 55% 30.01 in 10.0 mi WNW 15.0 mph - N/A   Overcast
2:53 PM 55.9 °F 37.0 °F 49% 30.00 in 10.0 mi NW 18.4 mph 24.2 mph N/A   Overcast
3:53 PM 57.0 °F 37.9 °F 49% 30.00 in 10.0 mi NW 15.0 mph 21.9 mph N/A   Overcast
4:53 PM 55.9 °F 37.0 °F 49% 30.00 in 10.0 mi NW 12.7 mph - N/A   Overcast
5:53 PM 57.9 °F 36.0 °F 44% 30.00 in 10.0 mi NW 16.1 mph 20.7 mph N/A   Scattered Clouds
6:53 PM 55.0 °F 37.0 °F 51% 30.00 in 10.0 mi NW 8.1 mph - N/A   Overcast
7:53 PM 54.0 °F 37.0 °F 53% 30.01 in 10.0 mi NNW 10.4 mph - N/A   Overcast
8:53 PM 51.1 °F 37.0 °F 59% 30.02 in 10.0 mi Calm Calm - N/A   Mostly Cloudy
9:53 PM 51.1 °F 37.0 °F 59% 30.04 in 10.0 mi West 3.5 mph - N/A   Mostly Cloudy
10:53 PM 48.0 °F 37.0 °F 66% 30.04 in 9.0 mi Calm Calm - N/A   Clear
11:53 PM 42.1 °F 36.0 °F 79% 30.04 in 10.0 mi Calm Calm - N/A   Clear